Погода в Нычалахе

Россия / Республика Саха (Якутия)     69°56′06″N   146°12′32″E
темп.,
°C
ветер,
м/с
пор.,
м/с
влажн.,
%
обл.,
%
осадки,
мм/ч
давл.,
гПа
погр.,
м
3 марта, ср
ср323:00−37ссз1110096 0.0 102719
02:00−36с0010092 0.0 102719
05:00−37вюв0010096 0.1 102619
08:00−37сз00100100 0.0 102619
11:00−35сз0098100 0.0 102519
14:00−33с1196100 0.0 1023107
17:00−34с1197100 0.0 102019
20:00−34с1297100 0.0 102019
4 марта, чт
чт423:00−34св1297100 0.0 101820
02:00−34ссв2397100 0.0 101793
05:00−35с3497100 0.1 1015101
08:00−36ссз4597100 0.0 1014104
11:00−32ссз5896100 0.1 1011331
14:00−28ссз71194100 0.1 1009484
17:00−28ссз91494100 0.1 1007496
20:00−26ссз101594100 0.0 1005580
5 марта, пт
пт523:00−25ссз101693100 0.2 1004669
02:00−25ссз111894100 0.1 1003644
05:00−25ссз121896100 0.8 1003715
08:00−24ссз131896100 0.9 1003863
11:00−24ссз121796100 2.0 10031091
14:00−22ссз121696100 1.1 10041182
17:00−22ссз111596100 2.3 10051094
20:00−22ссз111596100 0.9 1008876
6 марта, сб
сб623:00−23ссз101593100 1.4 1009769
02:00−24ссз101591100 0.1 1011698
05:00−25ссз101693100 0.1 1012581
08:00−25ссз101593100 0.1 1013569
11:00−25сз111793100 0.1 1013553
14:00−24сз111693100 0.0 1013598
17:00−25ссз111792100 0.1 1013582
20:00−25ссз111792100 0.0 1014549
7 марта, вс
вс723:00−26ссз101693100 0.0 1014490
02:00−27ссз101692100 0.0 1014454
05:00−28ссз91592100 0.0 1015445
08:00−29ссз81492100 0.0 1016384
11:00−30ссз81293100 0.0 1017377
14:00−30сз71093100 0.0 1017380
17:00−30сз61193100 0.0 1018323
20:00−33сз599595 0.0 1018169